Temp
8 8 7 7 8 8 8 8 8 8 8 8 8 8 8 8 9 11 10 19 20 20 20 20 20 21 21 20 21 21 19 18 20 21 23 24 24 26 28 27 28 30 28 29 29
7 7 7 7 8 8 7 7 8 8 8 8 8 8 8 8 9 8 21 20 21 19 19 19 20 20 19 20 20 19 17 19 21 23 23 23 24 25 26 26 26 27 29 29 29
7 7 7 7 8 8 7 7 8 8 8 8 8 8 8 8 9 17 21 21 21 20 19 20 20 21 20 20 20 19 19 20 22 22 23 23 24 25 25 24 25 26 28 28 27
7 7 7 7 7 7 8 8 8 8 8 8 8 8 9 9 20 22 23 23 21 20 19 20 19 20 20 20 20 21 21 22 22 22 22 23 24 25 25 26 25 27 26 28 26
7 7 7 7 8 8 8 8 8 8 8 8 8 8 11 12 13 22 21 21 20 19 19 19 19 20 20 20 21 20 21 22 22 22 22 22 23 23 25 26 26 27 27 26 25
8 7 7 7 8 8 8 8 8 8 8 8 8 8 10 15 21 21 21 20 20 19 19 19 20 19 20 21 20 21 21 21 21 21 21 22 24 23 25 25 26 26 26 24 24
12 11 8 7 8 9 10 12 10 10 9 8 9 9 10 15 21 21 21 21 21 20 20 21 21 22 21 21 20 21 21 20 21 23 23 23 22 23 25 26 25 26 26 25 24
13 13 13 13 13 15 14 14 14 12 10 10 9 9 12 20 20 21 21 21 21 21 21 22 22 22 22 21 19 19 19 18 20 22 22 23 21 23 23 24 24 24 24 25 25
14 14 14 14 15 15 15 15 14 14 14 12 10 11 14 20 19 22 21 21 22 22 22 22 23 21 19 17 16 16 16 18 19 21 22 22 21 22 23 22 21 22 23 23 23
14 14 15 15 15 16 16 16 14 13 11 11 11 13 17 21 22 22 22 22 21 22 21 22 16 17 15 15 15 17 17 18 18 20 21 20 20 21 21 22 21 22 21 22 22
15 15 15 16 16 16 16 14 13 13 13 17 18 17 19 21 23 23 23 21 21 21 20 19 17 16 17 17 18 18 18 17 19 21 20 20 20 20 20 20 21 20 19 20 21
15 15 15 16 16 17 15 13 17 17 15 15 17 17 20 21 20 21 23 21 21 19 19 17 16 18 19 19 18 18 17 18 19 20 19 19 19 20 21 21 21 20 19 19 20
15 15 15 16 17 16 15 17 18 17 15 18 18 18 19 19 19 19 21 20 20 19 18 17 19 21 20 19 19 19 18 19 19 20 20 21 19 19 20 21 22 22 21 20 19
15 15 13 16 14 14 15 19 18 17 14 18 20 20 20 21 21 22 22 21 20 19 18 18 20 20 19 19 20 19 20 20 20 19 17 20 18 19 19 20 20 20 19 20 20
15 15 13 13 14 14 19 19 19 17 17 22 21 23 21 21 23 23 22 21 19 19 18 18 20 19 19 20 20 18 19 19 19 18 17 18 16 17 20 19 19 19 20 19 17
14 15 15 12 12 18 18 19 19 16 17 22 23 22 22 22 22 22 22 22 21 19 19 19 20 20 20 20 19 19 18 18 16 14 14 18 16 18 20 18 20 20 19 19 19
15 15 15 13 15 18 18 16 15 15 21 22 21 22 21 21 22 21 22 20 18 17 17 18 18 18 19 18 18 15 15 12 14 14 16 17 16 19 19 20 19 19 18 17 18
15 16 16 16 17 17 17 15 16 19 20 22 21 21 20 20 20 20 19 17 18 17 15 16 16 18 18 18 16 15 14 12 14 13 15 14 15 17 19 20 20 18 16 15 14
14 15 16 18 19 17 14 14 15 18 20 20 20 20 19 20 19 18 18 18 18 17 17 15 15 18 17 17 16 14 12 14 12 13 12 12 15 18 18 18 18 17 16 15 15
11 12 15 17 18 17 14 15 16 20 20 20 19 20 18 18 18 17 18 19 17 18 17 16 13 16 17 17 16 14 14 13 12 13 13 13 14 15 16 17 17 17 16 15 15
11 10 16 16 18 13 14 15 18 20 19 19 19 19 18 17 17 17 18 19 19 16 15 14 13 14 15 15 14 14 14 12 12 12 11 11 13 15 14 15 16 16 18 16 15
8 11 17 18 13 12 15 16 17 20 19 19 19 18 18 17 17 17 17 18 18 16 15 12 11 11 13 14 14 15 15 13 11 12 12 12 12 14 14 15 14 15 17 18 15
5 7 16 17 11 12 15 16 18 18 18 18 17 18 17 17 16 16 17 18 17 15 13 12 11 10 11 12 13 14 13 12 10 11 11 11 12 16 16 14 13 13 14 17 18
7 9 9 9 11 13 13 14 16 17 17 17 17 17 16 16 16 15 16 17 17 17 16 14 10 11 10 12 11 11 13 13 12 11 11 12 14 15 14 13 13 12 12 13 14
6 8 9 8 11 10 12 13 13 14 15 16 16 16 15 14 15 15 15 15 15 16 13 12 12 11 11 12 13 13 13 14 11 13 12 14 13 13 13 13 12 11 12 13 14
7 7 7 7 9 10 12 11 12 13 11 12 14 14 15 14 14 14 14 13 13 14 14 10 11 12 12 13 13 13 13 13 14 14 14 14 13 13 13 12 12 11 12 13 13
8 9 8 9 10 10 11 11 11 10 10 11 12 12 13 14 14 13 13 13 13 12 11 11 9 9 11 12 12 12 12 12 12 13 12 11 12 12 11 11 11 10 11 12 13
Height
806 803 800 797 795 793 790 788 786 784 783 782 780 779 778 776 773 771 767 758 758 761 762 763 765 766 769 769 766 768 792 802 790 786 772 759 767 754 748 753 745 744 744 729 733
804 801 797 794 792 790 788 785 783 782 780 779 778 777 775 772 768 764 752 752 756 759 761 763 765 766 770 768 769 776 796 787 773 767 770 764 765 760 758 756 752 744 735 728 730
802 799 795 792 790 787 785 783 782 780 778 777 776 775 773 771 769 751 746 748 754 757 759 761 762 762 768 767 769 772 781 774 768 764 764 762 757 756 758 760 754 750 738 730 733
801 797 793 789 786 784 782 781 779 778 776 775 773 772 770 770 765 748 747 748 752 755 759 760 762 765 770 772 766 774 765 764 760 760 761 761 751 752 753 749 741 738 735 730 730
798 795 790 787 784 782 780 778 777 775 774 773 772 771 771 772 761 749 749 750 752 754 757 759 761 764 770 767 765 770 765 761 757 756 756 753 755 754 740 740 735 731 729 728 728
796 792 788 785 782 779 777 775 774 773 772 772 771 772 772 771 751 750 751 752 753 756 757 758 759 760 765 765 767 761 761 761 756 755 755 756 750 747 731 732 729 728 726 724 722
795 790 786 782 780 777 775 773 772 771 771 770 770 772 773 760 750 750 751 753 755 756 758 757 757 761 763 766 762 761 767 762 757 751 753 747 754 743 732 728 729 724 721 719 721
794 789 784 780 778 776 774 772 771 770 769 769 771 773 767 750 749 749 751 752 753 754 756 755 756 758 759 759 766 771 769 778 758 752 749 750 760 740 731 732 730 727 723 717 711
793 788 783 780 777 774 773 771 770 769 769 769 772 772 761 748 747 746 749 749 750 752 751 752 754 759 761 775 785 782 788 778 769 751 750 752 753 738 730 731 732 729 722 718 713
792 786 781 778 775 773 771 769 767 768 770 771 772 774 751 745 742 741 744 747 750 751 752 752 764 771 781 785 800 786 783 775 774 758 751 756 746 737 731 729 726 718 717 714 711
792 785 781 777 774 771 769 768 771 771 768 759 755 755 746 742 739 738 741 746 750 753 765 761 775 782 775 774 769 773 776 776 761 748 754 752 744 736 731 728 722 715 717 712 708
790 785 780 775 771 768 767 768 766 767 764 747 745 747 742 745 749 739 740 748 752 764 761 773 779 764 761 764 768 770 774 770 755 746 753 750 746 730 726 722 718 714 714 711 707
787 781 775 770 767 765 764 763 762 760 766 744 739 739 740 742 747 742 738 744 752 761 765 775 760 752 758 761 765 765 769 762 760 745 742 742 748 736 724 718 713 710 709 709 706
784 777 770 765 766 763 762 760 759 758 777 751 739 733 734 736 741 728 732 741 751 758 763 766 749 754 757 761 756 764 749 750 750 754 767 739 759 738 729 725 718 715 709 706 704
781 775 766 762 762 761 759 758 756 758 782 737 736 725 727 737 731 727 726 736 750 750 757 756 750 753 757 753 749 759 748 750 747 755 757 752 765 742 724 725 717 712 706 703 702
778 772 763 760 759 756 756 755 756 778 778 737 728 733 737 733 732 729 730 730 732 746 747 747 742 745 748 746 747 746 750 752 759 765 773 744 757 738 722 722 710 702 702 698 691
774 767 761 760 757 755 755 755 780 784 739 743 743 735 737 741 738 737 738 745 754 761 759 751 751 746 744 752 749 759 767 786 777 774 753 740 750 724 712 707 706 705 703 695 688
769 762 756 755 756 756 755 768 780 758 748 735 738 738 745 745 745 743 746 754 746 751 765 765 767 749 746 750 759 763 769 787 770 769 755 750 747 725 707 700 697 702 702 695 688
766 756 754 753 754 756 762 778 772 759 748 747 742 746 751 746 746 748 749 752 748 748 761 768 767 748 749 749 755 763 772 761 774 767 770 757 736 716 706 702 700 701 701 700 689
767 759 754 754 756 756 770 773 764 749 747 742 751 746 755 754 753 755 752 745 749 746 747 758 771 754 748 748 750 758 759 768 768 761 759 751 743 735 717 708 705 700 704 701 694
769 768 758 756 757 765 777 772 758 747 747 749 747 749 752 756 754 755 750 744 741 750 751 758 768 763 756 755 759 761 760 768 767 763 766 766 742 723 724 719 706 702 694 697 697
777 777 760 757 772 775 772 767 757 749 747 745 743 746 750 752 755 753 753 746 739 745 755 763 774 776 765 754 750 751 753 762 768 761 757 758 751 726 724 721 714 708 696 691 691
790 785 763 760 786 783 773 768 761 758 753 749 752 748 750 753 757 752 748 741 740 747 757 763 777 786 775 765 757 754 757 763 771 770 763 769 749 718 717 721 721 717 708 696 689
792 792 779 774 780 780 780 773 769 761 759 753 754 750 754 754 752 754 750 744 743 743 744 753 777 773 786 767 770 766 755 753 756 767 758 747 734 721 723 722 718 718 714 708 700
797 800 798 798 785 789 781 777 775 770 763 758 755 760 760 761 757 756 753 753 748 747 753 760 766 769 764 758 755 753 750 746 755 745 750 733 734 730 728 724 722 719 716 712 705
804 803 801 800 790 785 781 780 777 772 779 772 765 763 760 762 757 756 754 756 756 753 753 765 766 759 761 751 750 748 745 743 735 732 732 731 730 728 725 723 722 722 718 712 704
802 801 801 795 790 786 782 779 778 782 779 774 769 767 761 753 748 747 748 749 749 754 760 763 772 776 766 753 753 752 745 746 744 738 740 742 730 728 727 725 725 722 717 710 703
Wind_Speed
18 18 17 17 16 16 15 15 14 13 13 14 14 14 14 15 16 11 8 11 3 17 7 4 4 4 4 2 3 3 2 4 7 8 12 10 4 1 4 8 8 2 5 9 20
19 18 18 17 16 16 15 14 14 13 12 12 14 14 14 14 15 11 13 11 12 5 5 5 1 6 2 3 2 4 4 7 5 7 6 10 4 5 6 15 12 15 6 6 19
19 19 18 17 16 15 14 13 13 13 12 12 12 12 12 12 4 7 8 14 12 9 5 1 2 1 2 2 4 5 6 5 5 7 9 12 13 4 5 13 8 9 6 6 6
20 19 19 18 16 15 13 13 12 11 11 10 10 9 9 4 2 3 4 11 12 8 7 3 2 2 1 4 4 3 5 6 7 8 7 8 11 11 8 14 11 14 8 11 9
21 20 19 18 16 14 13 11 11 11 9 9 7 5 2 3 8 2 5 10 11 9 6 3 2 3 3 3 1 5 5 6 10 10 8 9 14 13 23 12 14 15 14 11 10
24 22 20 18 16 14 12 11 10 9 8 7 4 1 1 2 3 3 8 10 9 11 6 5 5 4 3 3 3 2 5 6 6 8 5 7 14 6 13 11 16 13 11 9 11
29 26 21 18 16 14 11 9 8 8 8 6 2 2 0 11 0 2 13 11 13 10 5 9 6 3 4 4 2 4 5 7 4 3 4 1 7 13 4 6 10 10 9 8 10
31 28 22 19 16 13 11 9 7 7 6 4 5 3 6 3 5 7 14 12 12 13 15 14 8 3 3 2 6 5 2 3 4 1 6 6 11 13 6 8 11 11 10 10 10
36 29 22 19 15 12 12 10 6 5 2 5 4 2 8 5 7 16 17 11 7 10 16 16 3 1 5 3 5 5 5 6 7 6 4 6 11 7 7 6 10 11 11 11 11
39 33 21 18 16 14 13 12 4 0 3 1 4 3 7 3 4 7 21 23 6 5 3 2 5 2 4 4 4 5 5 6 5 7 4 8 18 10 9 6 13 12 12 10 11
40 34 29 19 15 15 14 2 3 0 4 7 6 5 7 8 5 5 10 9 4 2 2 2 2 6 10 8 8 5 5 12 13 15 4 13 17 11 9 8 11 11 9 11 11
42 37 35 27 16 14 9 1 3 4 8 14 16 10 17 3 4 5 9 6 5 6 3 4 7 10 5 6 7 8 12 14 12 14 6 9 11 14 6 7 8 10 9 11 5
44 43 45 27 16 8 3 8 11 8 2 6 6 5 6 12 7 7 9 5 5 5 6 7 9 1 4 7 8 7 6 9 12 7 5 2 7 8 5 5 6 6 4 5 9
44 47 46 25 2 2 6 4 17 1 3 5 3 5 6 6 5 11 16 7 3 10 7 6 10 10 11 6 3 3 4 7 7 3 7 3 11 10 7 7 5 8 7 8 7
46 48 43 14 5 3 0 12 10 3 3 2 2 6 5 7 2 3 8 3 9 9 7 11 5 6 6 8 3 7 4 5 4 4 2 3 1 9 4 7 9 9 9 6 10
48 44 38 5 7 9 9 12 3 3 3 1 3 4 4 3 3 5 4 2 5 6 4 6 1 2 3 2 4 3 3 2 1 3 2 6 7 10 12 8 5 4 8 9 12
47 41 24 5 2 2 11 3 3 3 5 3 4 2 4 2 2 4 4 4 5 3 3 0 2 2 2 2 2 8 6 4 4 2 11 5 4 17 6 8 6 5 10 11 12
45 36 21 11 4 3 2 4 2 3 3 0 1 2 3 2 2 3 2 2 5 4 2 2 5 2 2 3 5 1 5 4 6 4 7 5 7 6 5 2 3 1 6 8 10
44 25 9 2 5 2 4 2 4 2 7 7 4 2 1 1 3 7 4 1 1 3 3 2 4 3 1 3 7 3 5 4 3 1 2 4 7 10 6 1 3 7 9 11 9
34 12 8 2 7 5 4 3 3 2 7 4 3 1 1 2 2 4 2 2 4 2 3 3 3 4 3 1 5 4 3 2 2 4 4 4 4 8 10 6 4 5 4 6 8
8 4 10 5 2 4 1 3 4 8 4 4 1 1 2 1 1 3 4 2 2 3 3 3 3 4 3 2 3 3 2 2 1 3 3 1 4 4 4 9 8 7 4 5 6
5 3 12 3 3 1 2 8 8 5 5 4 1 1 3 2 2 3 3 3 5 5 3 2 4 3 8 7 8 4 3 5 2 3 3 2 5 6 10 16 11 11 11 5 6
3 3 8 3 3 3 5 7 9 13 9 5 5 4 2 1 2 4 2 6 4 5 6 6 1 2 8 5 5 2 2 2 2 1 4 1 5 1 3 5 7 9 11 8 6
3 4 4 4 2 3 3 3 9 7 8 5 3 4 4 2 3 3 2 2 6 2 7 8 4 6 6 6 4 6 6 6 5 3 3 8 12 9 5 6 11 10 10 10 8
3 1 1 4 3 6 3 2 11 7 6 8 3 8 5 3 3 3 2 4 4 4 3 3 5 5 7 9 8 9 12 10 8 14 8 9 10 4 6 5 7 8 8 8 9
2 3 3 3 4 3 2 2 8 5 2 6 5 10 7 5 6 5 4 4 5 1 2 1 3 1 4 10 7 9 5 9 7 5 9 13 12 4 5 5 6 8 11 13 13
3 2 1 3 4 4 3 2 7 7 6 10 13 12 13 14 9 8 7 6 6 7 4 3 4 2 4 4 8 3 1 2 4 5 5 5 4 6 9 8 7 8 14 16 17
Wind_Direction
329 325 323 320 316 312 311 311 310 311 312 313 312 312 313 311 307 296 241 237 209 211 235 206 258 197 186 208 191 105 122 224 214 194 248 293 303 138 277 262 308 203 278 239 143
332 329 327 325 320 315 311 308 307 308 309 309 311 315 317 320 312 254 269 237 204 165 187 196 170 160 172 194 195 140 175 226 219 231 268 278 253 305 319 296 290 302 257 182 144
336 333 330 326 320 317 313 310 307 306 305 305 310 319 321 327 294 251 333 192 182 209 196 116 215 108 184 132 208 189 223 214 242 232 242 269 285 253 258 280 248 268 277 300 118
338 336 332 328 323 320 314 309 306 303 301 301 311 320 327 337 107 344 86 149 174 178 195 184 141 112 222 202 223 250 251 238 265 235 245 251 271 269 239 258 259 271 246 229 205
343 338 336 330 326 321 315 308 304 302 298 301 302 323 56 4 256 288 150 148 162 170 184 158 117 154 208 226 139 205 253 270 267 270 255 262 267 262 264 267 270 270 268 204 216
350 344 338 335 328 322 317 311 305 299 296 293 286 359 121 294 317 271 185 168 174 177 187 168 197 198 282 257 169 225 260 261 275 270 261 256 267 260 275 241 248 255 251 190 207
1 354 346 339 333 328 327 336 321 312 292 272 170 139 230 236 359 269 199 202 205 190 180 213 228 197 146 292 207 256 285 315 230 232 263 176 286 256 248 239 229 256 263 245 218
2 358 352 347 344 347 348 337 335 331 302 245 151 172 246 255 309 214 208 238 237 236 242 261 247 211 177 244 360 1 83 302 274 258 258 158 259 278 263 217 237 251 263 260 256
1 356 352 348 345 346 347 332 302 334 358 141 160 200 267 284 259 224 207 234 259 266 264 271 250 164 33 66 4 356 262 274 306 210 223 191 270 259 282 277 246 242 244 249 254
2 356 351 345 340 339 339 328 282 166 80 160 263 320 269 175 256 210 213 227 240 302 11 113 49 61 35 72 250 268 298 287 287 287 178 271 274 273 275 257 272 272 236 235 239
4 1 353 342 332 328 333 316 21 2 205 211 213 254 289 292 305 212 173 170 223 129 186 11 64 236 235 209 232 239 260 264 279 278 278 274 272 276 268 290 291 287 227 229 233
2 358 350 336 319 311 314 173 213 300 299 228 241 236 254 343 331 302 172 158 148 215 118 9 253 245 229 233 231 244 259 274 273 261 194 252 260 278 244 257 268 272 229 224 246
1 356 348 338 311 293 241 268 348 340 281 293 194 206 231 157 214 247 166 161 176 207 190 193 238 284 260 281 275 258 239 270 265 276 258 252 283 284 277 268 279 268 239 271 239
355 351 347 340 284 214 260 330 334 182 30 273 224 253 158 176 255 206 186 148 205 220 164 233 253 234 260 242 230 265 282 280 267 228 261 154 275 279 273 272 259 273 272 273 255
346 346 341 322 279 209 63 326 339 115 346 155 167 156 136 158 259 232 152 82 199 207 133 228 198 197 241 253 177 235 303 285 300 262 8 239 202 281 248 271 267 279 294 274 239
342 342 337 315 231 247 318 332 102 45 253 74 118 160 117 251 283 0 174 97 235 221 229 232 302 115 225 264 226 322 314 292 62 131 244 251 187 271 270 238 232 230 292 295 300
339 339 334 257 249 152 336 44 49 173 321 53 41 338 204 296 82 22 338 360 216 188 225 357 253 296 201 24 71 49 40 318 292 250 252 169 213 245 283 276 249 278 297 306 280
337 338 327 278 251 6 32 62 206 249 19 198 238 308 114 21 308 314 51 3 13 71 96 163 313 16 31 129 206 161 167 193 271 249 275 339 242 263 256 325 81 17 339 336 336
338 343 327 325 161 122 71 110 219 254 351 315 331 354 36 44 29 24 343 155 66 48 134 151 265 293 156 190 145 188 198 161 223 250 297 242 300 293 293 235 7 50 26 4 10
335 327 315 324 139 73 71 237 255 295 324 298 238 163 225 41 76 23 264 210 157 215 144 190 270 255 297 138 239 174 142 245 250 225 210 264 254 247 326 314 318 360 57 7 23
350 5 14 129 162 46 117 258 282 314 9 308 267 207 79 101 270 220 252 313 167 147 94 130 128 285 355 203 209 325 268 234 263 236 229 285 255 210 289 297 311 286 254 129 57
13 359 349 323 44 6 20 323 303 318 331 296 202 124 169 186 248 249 241 230 220 148 115 44 132 261 251 290 275 200 221 161 250 292 273 286 273 40 11 322 321 311 311 290 138
5 281 339 5 74 351 327 329 331 342 326 347 12 2 2 163 263 217 306 315 144 144 166 180 129 340 336 351 353 13 180 154 85 337 236 204 269 8 6 315 330 343 334 298 280
33 353 332 28 57 19 8 320 314 332 321 349 326 8 356 269 220 266 261 358 346 166 145 126 143 173 205 226 203 282 261 243 172 214 241 230 273 301 328 332 333 337 332 325 319
29 299 201 317 325 331 275 275 292 306 339 325 7 6 333 287 284 239 18 344 357 54 98 117 200 196 239 250 250 265 277 286 217 237 227 262 271 310 307 305 311 317 328 327 323
53 12 352 284 282 314 304 318 285 314 310 297 331 330 298 249 229 245 184 189 234 8 84 35 250 225 270 264 267 283 299 309 19 324 250 257 274 225 288 311 312 312 320 314 306
359 354 123 287 307 300 262 265 314 324 282 248 307 309 297 269 247 222 210 203 208 180 172 177 153 114 269 310 306 302 103 289 269 248 260 254 253 328 318 307 300 288 299 291 290